{"data":{"norad_id":57678,"intl_designator":"2023-124R","name":"STARLINK-30320","alt_names":[],"object_type":"PAYLOAD","status":"ACTIVE","operator":null,"country":"US","launch_date":"2023-08-22","launch_site_code":"AFWTR","launch_vehicle":null,"mission":null,"orbit_class":"UNKNOWN","rcs_meters":null,"size_class":null,"mass_kg":null,"dimensions":null,"purposes":["comms"],"wikipedia_slug":null,"has_3d_model":false,"image_url":null,"decayed_at":null,"tle_current":{"epoch":"2026-05-25T00:00:02.000160Z","epoch_age_seconds":75374,"freshness":"FRESH","line1":"1 57678U 23124R   26145.00002315  .00058629  00000+0  17346-2 0  9996","line2":"2 57678  53.1607 199.4763 0001587  72.9108 277.8929 15.34368286  5874","mean_motion":15.34368286,"eccentricity":0.0001587,"inclination_deg":53.1607,"raan_deg":199.4763,"arg_perigee_deg":72.9108,"mean_anomaly_deg":277.8929,"bstar":0.0017346,"rev_number":587,"period_min":93.849697829325,"perigee_km":461.71184621654,"apogee_km":463.88315882764,"semimajor_km":6840.9345025221,"source":"CELESTRAK","updated_at":"2026-05-25T13:38:18.369337Z"}}}